owner,sensor,date,latitude,longitude,vertical_datum,direction_of_sea_water_velocity,sea_water_speed,upward_sea_water_velocity,qcFlag 
TABS,ioos:station:TABS:H:1,1998-06-01T00:00:00Z,27.8674,-96.5433,2.0,316.6091389,37.52680775,-99999.0,'11111222,11111222,99999999' 
TABS,ioos:station:TABS:H:1,1998-06-01T00:30:00Z,27.8674,-96.5433,2.0,314.0336642,37.72244425,-99999.0,'11111222,11111222,99999999' 
TABS,ioos:station:TABS:H:1,1998-06-01T01:00:00Z,27.8674,-96.5433,2.0,308.9092384,37.7178817,-99999.0,'11111222,11111222,99999999' 
TABS,ioos:station:TABS:H:1,1998-06-01T01:30:00Z,27.8674,-96.5433,2.0,312.9000555,37.43109403,-99999.0,'11111222,11111222,99999999' 
TABS,ioos:station:TABS:H:1,1998-06-01T02:00:00Z,27.8674,-96.5433,2.0,305.444841,39.31616589,-99999.0,'11111222,11111222,99999999' 
TABS,ioos:station:TABS:H:1,1998-06-01T02:30:00Z,27.8674,-96.5433,2.0,302.5315529,41.00350473,-99999.0,'11111222,11111222,99999999' 
TABS,ioos:station:TABS:H:1,1998-06-01T03:00:00Z,27.8674,-96.5433,2.0,303.8098477,41.24482271,-99999.0,'11111222,11111222,99999999' 
TABS,ioos:station:TABS:H:1,1998-06-01T03:30:00Z,27.8674,-96.5433,2.0,297.3047077,41.24547127,-99999.0,'11111222,11111222,99999999' 
TABS,ioos:station:TABS:H:1,1998-06-01T04:00:00Z,27.8674,-96.5433,2.0,309.3904547,42.02664988,-99999.0,'11111222,11111222,99999999' 
TABS,ioos:station:TABS:H:1,1998-06-01T04:30:00Z,27.8674,-96.5433,2.0,306.0547784,42.01825556,-99999.0,'11111222,11111222,99999999' 
TABS,ioos:station:TABS:H:1,1998-06-01T05:00:00Z,27.8674,-96.5433,2.0,312.9615258,41.54053562,-99999.0,'11111222,11111222,99999999' 
TABS,ioos:station:TABS:H:1,1998-06-01T05:30:00Z,27.8674,-96.5433,2.0,311.731194,42.53097342,-99999.0,'11111222,11111222,99999999' 
TABS,ioos:station:TABS:H:1,1998-06-01T06:00:00Z,27.8674,-96.5433,2.0,317.2297907,43.44216961,-99999.0,'11111222,11111222,99999999' 
TABS,ioos:station:TABS:H:1,1998-06-01T06:30:00Z,27.8674,-96.5433,2.0,317.7780996,45.66911976,-99999.0,'11111222,11111222,99999999' 
TABS,ioos:station:TABS:H:1,1998-06-01T07:00:00Z,27.8674,-96.5433,2.0,324.0411336,46.93392909,-99999.0,'11111222,11111222,99999999' 
TABS,ioos:station:TABS:H:1,1998-06-01T07:30:00Z,27.8674,-96.5433,2.0,320.1466804,45.80008843,-99999.0,'11111222,11111222,99999999' 
TABS,ioos:station:TABS:H:1,1998-06-01T08:00:00Z,27.8674,-96.5433,2.0,317.7765224,47.88490368,-99999.0,'11111222,11111222,99999999' 
TABS,ioos:station:TABS:H:1,1998-06-01T08:30:00Z,27.8674,-96.5433,2.0,320.30853,48.99340874,-99999.0,'11111222,11111222,99999999' 
TABS,ioos:station:TABS:H:1,1998-06-01T09:00:00Z,27.8674,-96.5433,2.0,331.7999295,51.40130446,-99999.0,'11111222,11111222,99999999' 
TABS,ioos:station:TABS:H:1,1998-06-01T09:30:00Z,27.8674,-96.5433,2.0,331.403725,52.60749471,-99999.0,'11111222,11111222,99999999' 
TABS,ioos:station:TABS:H:1,1998-06-01T10:00:00Z,27.8674,-96.5433,2.0,337.6416192,53.65363455,-99999.0,'11111222,11111222,99999999' 
TABS,ioos:station:TABS:H:1,1998-06-01T10:30:00Z,27.8674,-96.5433,2.0,337.1316995,51.74741056,-99999.0,'11111222,11111222,99999999' 
TABS,ioos:station:TABS:H:1,1998-06-01T11:00:00Z,27.8674,-96.5433,2.0,329.4601605,51.02908386,-99999.0,'11111222,11111222,99999999' 
TABS,ioos:station:TABS:H:1,1998-06-01T11:30:00Z,27.8674,-96.5433,2.0,297.8075865,36.72039352,-99999.0,'11111222,11111222,99999999' 
TABS,ioos:station:TABS:H:1,1998-06-01T12:00:00Z,27.8674,-96.5433,2.0,282.4473542,31.13172176,-99999.0,'11111222,11111222,99999999' 
TABS,ioos:station:TABS:H:1,1998-06-01T12:30:00Z,27.8674,-96.5433,2.0,279.0798549,29.27682531,-99999.0,'11111222,11111222,99999999' 
TABS,ioos:station:TABS:H:1,1998-06-01T13:00:00Z,27.8674,-96.5433,2.0,276.3094975,28.4825034,-99999.0,'11111222,11111222,99999999' 
TABS,ioos:station:TABS:H:1,1998-06-01T13:30:00Z,27.8674,-96.5433,2.0,276.5480562,27.44904006,-99999.0,'11111222,11111222,99999999' 
TABS,ioos:station:TABS:H:1,1998-06-01T14:00:00Z,27.8674,-96.5433,2.0,273.3419937,22.98908654,-99999.0,'11111222,11111222,99999999' 
TABS,ioos:station:TABS:H:1,1998-06-01T14:30:00Z,27.8674,-96.5433,2.0,272.1384014,23.85660705,-99999.0,'11111222,11111222,99999999' 
TABS,ioos:station:TABS:H:1,1998-06-01T15:00:00Z,27.8674,-96.5433,2.0,271.8360325,23.1018549,-99999.0,'11111222,11111222,99999999' 
TABS,ioos:station:TABS:H:1,1998-06-01T15:30:00Z,27.8674,-96.5433,2.0,275.9834659,24.27221663,-99999.0,'11111222,11111222,99999999' 
TABS,ioos:station:TABS:H:1,1998-06-01T16:00:00Z,27.8674,-96.5433,2.0,279.6914922,23.88078726,-99999.0,'11111222,11111222,99999999' 
TABS,ioos:station:TABS:H:1,1998-06-01T16:30:00Z,27.8674,-96.5433,2.0,276.7701951,24.00738428,-99999.0,'11111222,11111222,99999999' 
TABS,ioos:station:TABS:H:1,1998-06-01T17:00:00Z,27.8674,-96.5433,2.0,280.0083773,25.72138799,-99999.0,'11111222,11111222,99999999' 
TABS,ioos:station:TABS:H:1,1998-06-01T17:30:00Z,27.8674,-96.5433,2.0,290.4444242,28.14259761,-99999.0,'11111222,11111222,99999999' 
TABS,ioos:station:TABS:H:1,1998-06-01T18:00:00Z,27.8674,-96.5433,2.0,291.4694938,28.49728584,-99999.0,'11111222,11111222,99999999' 
TABS,ioos:station:TABS:H:1,1998-06-01T18:30:00Z,27.8674,-96.5433,2.0,291.3322118,29.90909561,-99999.0,'11111222,11111222,99999999' 
TABS,ioos:station:TABS:H:1,1998-06-01T19:00:00Z,27.8674,-96.5433,2.0,294.3466539,31.07333584,-99999.0,'11111222,11111222,99999999' 
TABS,ioos:station:TABS:H:1,1998-06-01T19:30:00Z,27.8674,-96.5433,2.0,302.6918938,33.10398768,-99999.0,'11111222,11111222,99999999' 
TABS,ioos:station:TABS:H:1,1998-06-01T20:00:00Z,27.8674,-96.5433,2.0,302.2984704,34.02425605,-99999.0,'11111222,11111222,99999999' 
TABS,ioos:station:TABS:H:1,1998-06-01T20:30:00Z,27.8674,-96.5433,2.0,297.333046,34.715835,-99999.0,'11111222,11111222,99999999' 
TABS,ioos:station:TABS:H:1,1998-06-01T21:00:00Z,27.8674,-96.5433,2.0,296.8852504,35.24992482,-99999.0,'11111222,11111222,99999999' 
TABS,ioos:station:TABS:H:1,1998-06-01T21:30:00Z,27.8674,-96.5433,2.0,299.879962,37.97830038,-99999.0,'11111222,11111222,99999999' 
TABS,ioos:station:TABS:H:1,1998-06-01T22:00:00Z,27.8674,-96.5433,2.0,298.7608238,38.40806296,-99999.0,'11111222,11111222,99999999' 
TABS,ioos:station:TABS:H:1,1998-06-01T22:30:00Z,27.8674,-96.5433,2.0,295.3934524,38.92019656,-99999.0,'11111222,11111222,99999999' 
TABS,ioos:station:TABS:H:1,1998-06-01T23:00:00Z,27.8674,-96.5433,2.0,302.6948138,40.54361109,-99999.0,'11111222,11111222,99999999' 
TABS,ioos:station:TABS:H:1,1998-06-01T23:30:00Z,27.8674,-96.5433,2.0,301.8310935,40.68926763,-99999.0,'11111222,11111222,99999999' 
TABS,ioos:station:TABS:H:1,1998-06-02T00:00:00Z,27.8674,-96.5433,2.0,299.3520198,41.02669497,-99999.0,'11111222,11111222,99999999' 
TABS,ioos:station:TABS:H:1,1998-06-02T00:30:00Z,27.8674,-96.5433,2.0,290.6279132,43.14608209,-99999.0,'11111222,11111222,99999999' 
TABS,ioos:station:TABS:H:1,1998-06-02T01:00:00Z,27.8674,-96.5433,2.0,289.1799304,43.07069653,-99999.0,'11111222,11111222,99999999' 
TABS,ioos:station:TABS:H:1,1998-06-02T01:30:00Z,27.8674,-96.5433,2.0,291.2446909,43.16320771,-99999.0,'11111222,11111222,99999999' 
TABS,ioos:station:TABS:H:1,1998-06-02T02:00:00Z,27.8674,-96.5433,2.0,291.6548678,42.00442358,-99999.0,'11111222,11111222,99999999' 
TABS,ioos:station:TABS:H:1,1998-06-02T02:30:00Z,27.8674,-96.5433,2.0,286.6856146,43.08398542,-99999.0,'11111222,11111222,99999999' 
TABS,ioos:station:TABS:H:1,1998-06-02T03:00:00Z,27.8674,-96.5433,2.0,292.250991,45.23863172,-99999.0,'11111222,11111222,99999999' 
TABS,ioos:station:TABS:H:1,1998-06-02T03:30:00Z,27.8674,-96.5433,2.0,296.0561542,44.78126617,-99999.0,'11111222,11111222,99999999' 
TABS,ioos:station:TABS:H:1,1998-06-02T04:00:00Z,27.8674,-96.5433,2.0,302.3474355,45.67824099,-99999.0,'11111222,11111222,99999999' 
TABS,ioos:station:TABS:H:1,1998-06-02T04:30:00Z,27.8674,-96.5433,2.0,300.1231132,47.20492559,-99999.0,'11111222,11111222,99999999' 
TABS,ioos:station:TABS:H:1,1998-06-02T05:00:00Z,27.8674,-96.5433,2.0,303.499404,50.74980296,-99999.0,'11111222,11111222,99999999' 
TABS,ioos:station:TABS:H:1,1998-06-02T05:30:00Z,27.8674,-96.5433,2.0,301.5037031,51.89948844,-99999.0,'11111222,11111222,99999999' 
TABS,ioos:station:TABS:H:1,1998-06-02T06:00:00Z,27.8674,-96.5433,2.0,303.6904097,53.18188131,-99999.0,'11111222,11111222,99999999' 
TABS,ioos:station:TABS:H:1,1998-06-02T06:30:00Z,27.8674,-96.5433,2.0,305.4982718,53.62737361,-99999.0,'11111222,11111222,99999999' 
TABS,ioos:station:TABS:H:1,1998-06-02T07:00:00Z,27.8674,-96.5433,2.0,310.0219205,54.67469707,-99999.0,'11111222,11111222,99999999' 
TABS,ioos:station:TABS:H:1,1998-06-02T07:30:00Z,27.8674,-96.5433,2.0,313.1823589,56.39186555,-99999.0,'11111222,11111222,99999999' 
TABS,ioos:station:TABS:H:1,1998-06-02T08:00:00Z,27.8674,-96.5433,2.0,324.9030133,60.64702219,-99999.0,'11111222,11111222,99999999' 
TABS,ioos:station:TABS:H:1,1998-06-02T08:30:00Z,27.8674,-96.5433,2.0,322.9258422,58.82037487,-99999.0,'11111222,11111222,99999999' 
TABS,ioos:station:TABS:H:1,1998-06-02T09:00:00Z,27.8674,-96.5433,2.0,335.2345561,63.66541447,-99999.0,'11111222,11111222,99999999' 
TABS,ioos:station:TABS:H:1,1998-06-02T09:30:00Z,27.8674,-96.5433,2.0,328.9620945,58.0866198,-99999.0,'11111222,11111222,99999999' 
TABS,ioos:station:TABS:H:1,1998-06-02T10:00:00Z,27.8674,-96.5433,2.0,336.2996626,62.64345137,-99999.0,'11111222,11111222,99999999' 
TABS,ioos:station:TABS:H:1,1998-06-02T10:30:00Z,27.8674,-96.5433,2.0,335.7024788,62.28747707,-99999.0,'11111222,11111222,99999999' 
TABS,ioos:station:TABS:H:1,1998-06-02T11:00:00Z,27.8674,-96.5433,2.0,336.7992186,61.27546001,-99999.0,'11111222,11111222,99999999' 
TABS,ioos:station:TABS:H:1,1998-06-02T11:30:00Z,27.8674,-96.5433,2.0,331.0891768,58.55803702,-99999.0,'11111222,11111222,99999999' 
TABS,ioos:station:TABS:H:1,1998-06-02T12:00:00Z,27.8674,-96.5433,2.0,330.8797757,52.35817033,-99999.0,'11111222,11111222,99999999' 
TABS,ioos:station:TABS:H:1,1998-06-02T12:30:00Z,27.8674,-96.5433,2.0,334.1561856,53.31208118,-99999.0,'11111222,11111222,99999999' 
TABS,ioos:station:TABS:H:1,1998-06-02T13:00:00Z,27.8674,-96.5433,2.0,331.9377028,50.99529488,-99999.0,'11111222,11111222,99999999' 
TABS,ioos:station:TABS:H:1,1998-06-02T13:30:00Z,27.8674,-96.5433,2.0,332.3070619,50.65228623,-99999.0,'11111222,11111222,99999999' 
TABS,ioos:station:TABS:H:1,1998-06-02T14:00:00Z,27.8674,-96.5433,2.0,335.657885,48.08480529,-99999.0,'11111222,11111222,99999999' 
TABS,ioos:station:TABS:H:1,1998-06-02T14:30:00Z,27.8674,-96.5433,2.0,323.0852172,45.65201419,-99999.0,'11111222,11111222,99999999' 
TABS,ioos:station:TABS:H:1,1998-06-02T15:00:00Z,27.8674,-96.5433,2.0,325.1081602,43.23175338,-99999.0,'11111222,11111222,99999999' 
TABS,ioos:station:TABS:H:1,1998-06-02T15:30:00Z,27.8674,-96.5433,2.0,331.940994,43.39000115,-99999.0,'11111222,11111222,99999999' 
TABS,ioos:station:TABS:H:1,1998-06-02T16:00:00Z,27.8674,-96.5433,2.0,318.3157504,40.10350857,-99999.0,'11111222,11111222,99999999' 
TABS,ioos:station:TABS:H:1,1998-06-02T16:30:00Z,27.8674,-96.5433,2.0,320.2158606,38.19340388,-99999.0,'11111222,11111222,99999999' 
TABS,ioos:station:TABS:H:1,1998-06-02T17:00:00Z,27.8674,-96.5433,2.0,323.7679758,40.08048153,-99999.0,'11111222,11111222,99999999' 
TABS,ioos:station:TABS:H:1,1998-06-02T17:30:00Z,27.8674,-96.5433,2.0,307.9496776,35.1402362,-99999.0,'11111222,11111222,99999999' 
TABS,ioos:station:TABS:H:1,1998-06-02T18:00:00Z,27.8674,-96.5433,2.0,325.1798999,39.92954295,-99999.0,'11111222,11111222,99999999' 
TABS,ioos:station:TABS:H:1,1998-06-02T18:30:00Z,27.8674,-96.5433,2.0,311.0279711,39.50196071,-99999.0,'11111222,11111222,99999999' 
TABS,ioos:station:TABS:H:1,1998-06-02T19:00:00Z,27.8674,-96.5433,2.0,310.6902792,42.05744286,-99999.0,'11111222,11111222,99999999' 
TABS,ioos:station:TABS:H:1,1998-06-02T19:30:00Z,27.8674,-96.5433,2.0,323.2614654,41.09210751,-99999.0,'11111222,11111222,99999999' 
TABS,ioos:station:TABS:H:1,1998-06-02T20:00:00Z,27.8674,-96.5433,2.0,310.7948307,43.10107307,-99999.0,'11111222,11111222,99999999' 
TABS,ioos:station:TABS:H:1,1998-06-02T20:30:00Z,27.8674,-96.5433,2.0,315.9457626,44.56793691,-99999.0,'11111222,11111222,99999999' 
TABS,ioos:station:TABS:H:1,1998-06-02T21:00:00Z,27.8674,-96.5433,2.0,309.6617572,45.29575035,-99999.0,'11111222,11111222,99999999' 
TABS,ioos:station:TABS:H:1,1998-06-02T21:30:00Z,27.8674,-96.5433,2.0,305.1417703,45.55272659,-99999.0,'11111222,11111222,99999999' 
TABS,ioos:station:TABS:H:1,1998-06-02T22:00:00Z,27.8674,-96.5433,2.0,298.8746012,46.28394322,-99999.0,'11111222,11111222,99999999' 
TABS,ioos:station:TABS:H:1,1998-06-02T22:30:00Z,27.8674,-96.5433,2.0,293.9428805,43.68933279,-99999.0,'11111222,11111222,99999999' 
TABS,ioos:station:TABS:H:1,1998-06-02T23:00:00Z,27.8674,-96.5433,2.0,285.5481335,46.70921108,-99999.0,'11111222,11111222,99999999' 
TABS,ioos:station:TABS:H:1,1998-06-02T23:30:00Z,27.8674,-96.5433,2.0,283.3380909,44.56195687,-99999.0,'11111222,11111222,99999999' 
TABS,ioos:station:TABS:H:1,1998-06-03T00:00:00Z,27.8674,-96.5433,2.0,281.6088168,45.17400359,-99999.0,'11111222,11111222,99999999' 
TABS,ioos:station:TABS:H:1,1998-06-03T00:30:00Z,27.8674,-96.5433,2.0,279.4007686,45.61252569,-99999.0,'11111222,11111222,99999999' 
TABS,ioos:station:TABS:H:1,1998-06-03T01:00:00Z,27.8674,-96.5433,2.0,292.5789368,46.95924297,-99999.0,'11111222,11111222,99999999' 
TABS,ioos:station:TABS:H:1,1998-06-03T01:30:00Z,27.8674,-96.5433,2.0,278.9300936,45.09659078,-99999.0,'11111222,11111222,99999999' 
TABS,ioos:station:TABS:H:1,1998-06-03T02:00:00Z,27.8674,-96.5433,2.0,287.2862378,44.62554986,-99999.0,'11111222,11111222,99999999' 
TABS,ioos:station:TABS:H:1,1998-06-03T02:30:00Z,27.8674,-96.5433,2.0,283.2133407,47.60010504,-99999.0,'11111222,11111222,99999999' 
TABS,ioos:station:TABS:H:1,1998-06-03T03:00:00Z,27.8674,-96.5433,2.0,290.0747174,47.75096439,-99999.0,'11111222,11111222,99999999' 
TABS,ioos:station:TABS:H:1,1998-06-03T03:30:00Z,27.8674,-96.5433,2.0,288.4830699,49.3347109,-99999.0,'11111222,11111222,99999999' 
TABS,ioos:station:TABS:H:1,1998-06-03T04:00:00Z,27.8674,-96.5433,2.0,293.7901143,49.50647331,-99999.0,'11111222,11111222,99999999' 
TABS,ioos:station:TABS:H:1,1998-06-03T04:30:00Z,27.8674,-96.5433,2.0,293.5957869,50.24035927,-99999.0,'11111222,11111222,99999999' 
TABS,ioos:station:TABS:H:1,1998-06-03T05:00:00Z,27.8674,-96.5433,2.0,289.862641,53.06683522,-99999.0,'11111222,11111222,99999999' 
TABS,ioos:station:TABS:H:1,1998-06-03T05:30:00Z,27.8674,-96.5433,2.0,295.1469232,53.65524112,-99999.0,'11111222,11111222,99999999' 
TABS,ioos:station:TABS:H:1,1998-06-03T06:00:00Z,27.8674,-96.5433,2.0,307.726593,54.06203844,-99999.0,'11111222,11111222,99999999' 
TABS,ioos:station:TABS:H:1,1998-06-03T06:30:00Z,27.8674,-96.5433,2.0,301.0448139,51.13406888,-99999.0,'11111222,11111222,99999999' 
TABS,ioos:station:TABS:H:1,1998-06-03T07:00:00Z,27.8674,-96.5433,2.0,305.6356808,51.14787288,-99999.0,'11111222,11111222,99999999' 
TABS,ioos:station:TABS:H:1,1998-06-03T07:30:00Z,27.8674,-96.5433,2.0,321.2214542,56.37728798,-99999.0,'11111222,11111222,99999999' 
TABS,ioos:station:TABS:H:1,1998-06-03T08:00:00Z,27.8674,-96.5433,2.0,333.4395663,58.97405701,-99999.0,'11111222,11111222,99999999' 
TABS,ioos:station:TABS:H:1,1998-06-03T08:30:00Z,27.8674,-96.5433,2.0,332.7210769,58.84446363,-99999.0,'11111222,11111222,99999999' 
TABS,ioos:station:TABS:H:1,1998-06-03T09:00:00Z,27.8674,-96.5433,2.0,323.3337444,50.15431587,-99999.0,'11111222,11111222,99999999' 
TABS,ioos:station:TABS:H:1,1998-06-03T09:30:00Z,27.8674,-96.5433,2.0,324.305333,50.81668427,-99999.0,'11111222,11111222,99999999' 
TABS,ioos:station:TABS:H:1,1998-06-03T10:00:00Z,27.8674,-96.5433,2.0,315.3963014,46.0408221,-99999.0,'11111222,11111222,99999999' 
TABS,ioos:station:TABS:H:1,1998-06-03T10:30:00Z,27.8674,-96.5433,2.0,320.6722583,50.08208462,-99999.0,'11111222,11111222,99999999' 
TABS,ioos:station:TABS:H:1,1998-06-03T11:00:00Z,27.8674,-96.5433,2.0,315.8869277,40.67058028,-99999.0,'11111222,11111222,99999999' 
TABS,ioos:station:TABS:H:1,1998-06-03T11:30:00Z,27.8674,-96.5433,2.0,318.4895228,44.96341735,-99999.0,'11111222,11111222,99999999' 
TABS,ioos:station:TABS:H:1,1998-06-03T12:00:00Z,27.8674,-96.5433,2.0,316.1162626,43.20534805,-99999.0,'11111222,11111222,99999999' 
TABS,ioos:station:TABS:H:1,1998-06-03T12:30:00Z,27.8674,-96.5433,2.0,306.9242254,38.20201696,-99999.0,'11111222,11111222,99999999' 
TABS,ioos:station:TABS:H:1,1998-06-03T13:00:00Z,27.8674,-96.5433,2.0,298.9349563,40.34633193,-99999.0,'11111222,11111222,99999999' 
TABS,ioos:station:TABS:H:1,1998-06-03T13:30:00Z,27.8674,-96.5433,2.0,316.5080141,40.04317795,-99999.0,'11111222,11111222,99999999' 
TABS,ioos:station:TABS:H:1,1998-06-03T14:00:00Z,27.8674,-96.5433,2.0,308.6020078,41.5609829,-99999.0,'11111222,11111222,99999999' 
TABS,ioos:station:TABS:H:1,1998-06-03T14:30:00Z,27.8674,-96.5433,2.0,307.1988099,41.15267671,-99999.0,'11111222,11111222,99999999' 
TABS,ioos:station:TABS:H:1,1998-06-03T15:00:00Z,27.8674,-96.5433,2.0,307.2791512,42.31507769,-99999.0,'11111222,11111222,99999999' 
TABS,ioos:station:TABS:H:1,1998-06-03T15:30:00Z,27.8674,-96.5433,2.0,318.1328835,36.61920944,-99999.0,'11111222,11111222,99999999' 
TABS,ioos:station:TABS:H:1,1998-06-03T16:00:00Z,27.8674,-96.5433,2.0,304.649405,36.95375624,-99999.0,'11111222,11111222,99999999' 
TABS,ioos:station:TABS:H:1,1998-06-03T16:30:00Z,27.8674,-96.5433,2.0,310.0818856,39.33978775,-99999.0,'11111222,11111222,99999999' 
TABS,ioos:station:TABS:H:1,1998-06-03T17:00:00Z,27.8674,-96.5433,2.0,306.813041,34.06201697,-99999.0,'11111222,11111222,99999999' 
TABS,ioos:station:TABS:H:1,1998-06-03T17:30:00Z,27.8674,-96.5433,2.0,302.810876,37.94319043,-99999.0,'11111222,11111222,99999999' 
TABS,ioos:station:TABS:H:1,1998-06-03T18:00:00Z,27.8674,-96.5433,2.0,301.443797,39.12534345,-99999.0,'11111222,11111222,99999999' 
TABS,ioos:station:TABS:H:1,1998-06-03T18:30:00Z,27.8674,-96.5433,2.0,295.9953229,40.45247211,-99999.0,'11111222,11111222,99999999' 
TABS,ioos:station:TABS:H:1,1998-06-03T19:00:00Z,27.8674,-96.5433,2.0,263.8558919,38.96378447,-99999.0,'11111222,11111222,99999999' 
TABS,ioos:station:TABS:H:1,1998-06-03T19:30:00Z,27.8674,-96.5433,2.0,294.6959929,36.74026266,-99999.0,'11111222,11111222,99999999' 
TABS,ioos:station:TABS:H:1,1998-06-03T20:00:00Z,27.8674,-96.5433,2.0,283.9876218,42.53106277,-99999.0,'11111222,11111222,99999999' 
TABS,ioos:station:TABS:H:1,1998-06-03T20:30:00Z,27.8674,-96.5433,2.0,277.5450008,45.39296862,-99999.0,'11111222,11111222,99999999' 
TABS,ioos:station:TABS:H:1,1998-06-03T21:00:00Z,27.8674,-96.5433,2.0,276.6100065,42.74409901,-99999.0,'11111222,11111222,99999999' 
TABS,ioos:station:TABS:H:1,1998-06-03T21:30:00Z,27.8674,-96.5433,2.0,274.9911402,49.65826517,-99999.0,'11111222,11111222,99999999' 
TABS,ioos:station:TABS:H:1,1998-06-03T22:00:00Z,27.8674,-96.5433,2.0,272.2877278,48.60872864,-99999.0,'11111222,11111222,99999999' 
TABS,ioos:station:TABS:H:1,1998-06-03T22:30:00Z,27.8674,-96.5433,2.0,282.2044415,46.50087526,-99999.0,'11111222,11111222,99999999' 
TABS,ioos:station:TABS:H:1,1998-06-03T23:00:00Z,27.8674,-96.5433,2.0,282.6460441,46.27244753,-99999.0,'11111222,11111222,99999999' 
TABS,ioos:station:TABS:H:1,1998-06-03T23:30:00Z,27.8674,-96.5433,2.0,270.7833373,32.93307456,-99999.0,'11111222,11111222,99999999' 
TABS,ioos:station:TABS:H:1,1998-06-04T00:00:00Z,27.8674,-96.5433,2.0,264.2866198,47.91800601,-99999.0,'11111222,11111222,99999999' 
TABS,ioos:station:TABS:H:1,1998-06-04T00:30:00Z,27.8674,-96.5433,2.0,270.1685744,51.11022011,-99999.0,'11111222,11111222,99999999' 
TABS,ioos:station:TABS:H:1,1998-06-04T01:00:00Z,27.8674,-96.5433,2.0,269.5094192,52.60192487,-99999.0,'11111222,11111222,99999999' 
TABS,ioos:station:TABS:H:1,1998-06-04T01:30:00Z,27.8674,-96.5433,2.0,269.1935718,52.60520507,-99999.0,'11111222,11111222,99999999' 
TABS,ioos:station:TABS:H:1,1998-06-04T02:00:00Z,27.8674,-96.5433,2.0,259.8376212,52.37155812,-99999.0,'11111222,11111222,99999999' 
TABS,ioos:station:TABS:H:1,1998-06-04T02:30:00Z,27.8674,-96.5433,2.0,271.5337377,50.07793127,-99999.0,'11111222,11111222,99999999' 
TABS,ioos:station:TABS:H:1,1998-06-04T03:00:00Z,27.8674,-96.5433,2.0,270.5154498,50.06202253,-99999.0,'11111222,11111222,99999999' 
TABS,ioos:station:TABS:H:1,1998-06-04T03:30:00Z,27.8674,-96.5433,2.0,282.4406055,50.50580957,-99999.0,'11111222,11111222,99999999' 
TABS,ioos:station:TABS:H:1,1998-06-04T04:00:00Z,27.8674,-96.5433,2.0,283.8167433,48.02968353,-99999.0,'11111222,11111222,99999999' 
TABS,ioos:station:TABS:H:1,1998-06-04T04:30:00Z,27.8674,-96.5433,2.0,275.8236837,45.53497996,-99999.0,'11111222,11111222,99999999' 
TABS,ioos:station:TABS:H:1,1998-06-04T05:00:00Z,27.8674,-96.5433,2.0,287.1500151,48.49624315,-99999.0,'11111222,11111222,99999999' 
TABS,ioos:station:TABS:H:1,1998-06-04T05:30:00Z,27.8674,-96.5433,2.0,295.4836425,45.71784991,-99999.0,'11111222,11111222,99999999' 
TABS,ioos:station:TABS:H:1,1998-06-04T06:00:00Z,27.8674,-96.5433,2.0,296.6430463,49.50659047,-99999.0,'11111222,11111222,99999999' 
TABS,ioos:station:TABS:H:1,1998-06-04T06:30:00Z,27.8674,-96.5433,2.0,293.3004052,46.72021511,-99999.0,'11111222,11111222,99999999' 
TABS,ioos:station:TABS:H:1,1998-06-04T07:00:00Z,27.8674,-96.5433,2.0,306.9464233,45.12003989,-99999.0,'11111222,11111222,99999999' 
TABS,ioos:station:TABS:H:1,1998-06-04T07:30:00Z,27.8674,-96.5433,2.0,298.3713565,46.40357098,-99999.0,'11111222,11111222,99999999' 
TABS,ioos:station:TABS:H:1,1998-06-04T08:00:00Z,27.8674,-96.5433,2.0,298.9820804,45.81753376,-99999.0,'11111222,11111222,99999999' 
TABS,ioos:station:TABS:H:1,1998-06-04T08:30:00Z,27.8674,-96.5433,2.0,297.5929726,44.38861566,-99999.0,'11111222,11111222,99999999' 
TABS,ioos:station:TABS:H:1,1998-06-04T09:00:00Z,27.8674,-96.5433,2.0,312.9347499,43.74883884,-99999.0,'11111222,11111222,99999999' 
TABS,ioos:station:TABS:H:1,1998-06-04T09:30:00Z,27.8674,-96.5433,2.0,312.4172325,44.40192451,-99999.0,'11111222,11111222,99999999' 
TABS,ioos:station:TABS:H:1,1998-06-04T10:00:00Z,27.8674,-96.5433,2.0,302.857166,45.5817617,-99999.0,'11111222,11111222,99999999' 
TABS,ioos:station:TABS:H:1,1998-06-04T10:30:00Z,27.8674,-96.5433,2.0,309.4033711,46.47341283,-99999.0,'11111222,11111222,99999999' 
TABS,ioos:station:TABS:H:1,1998-06-04T11:00:00Z,27.8674,-96.5433,2.0,308.4015173,42.21107438,-99999.0,'11111222,11111222,99999999' 
TABS,ioos:station:TABS:H:1,1998-06-04T11:30:00Z,27.8674,-96.5433,2.0,310.6069428,46.70729707,-99999.0,'11111222,11111222,99999999' 
TABS,ioos:station:TABS:H:1,1998-06-04T12:00:00Z,27.8674,-96.5433,2.0,302.9102176,42.77412419,-99999.0,'11111222,11111222,99999999' 
TABS,ioos:station:TABS:H:1,1998-06-04T12:30:00Z,27.8674,-96.5433,2.0,317.1782951,44.28273253,-99999.0,'11111222,11111222,99999999' 
TABS,ioos:station:TABS:H:1,1998-06-04T13:00:00Z,27.8674,-96.5433,2.0,321.2330394,46.63356731,-99999.0,'11111222,11111222,99999999' 
TABS,ioos:station:TABS:H:1,1998-06-04T13:30:00Z,27.8674,-96.5433,2.0,317.1263239,42.69621295,-99999.0,'11111222,11111222,99999999' 
TABS,ioos:station:TABS:H:1,1998-06-04T14:00:00Z,27.8674,-96.5433,2.0,302.4174646,43.07200599,-99999.0,'11111222,11111222,99999999' 
TABS,ioos:station:TABS:H:1,1998-06-04T14:30:00Z,27.8674,-96.5433,2.0,314.7269877,42.98551035,-99999.0,'11111222,11111222,99999999' 
TABS,ioos:station:TABS:H:1,1998-06-04T15:00:00Z,27.8674,-96.5433,2.0,315.9684957,43.52156477,-99999.0,'11111222,11111222,99999999' 
TABS,ioos:station:TABS:H:1,1998-06-04T15:30:00Z,27.8674,-96.5433,2.0,309.3377196,39.48661166,-99999.0,'11111222,11111222,99999999' 
TABS,ioos:station:TABS:H:1,1998-06-04T16:00:00Z,27.8674,-96.5433,2.0,307.7931307,40.3552351,-99999.0,'11111222,11111222,99999999' 
TABS,ioos:station:TABS:H:1,1998-06-04T16:30:00Z,27.8674,-96.5433,2.0,304.9330432,37.98370835,-99999.0,'11111222,11111222,99999999' 
TABS,ioos:station:TABS:H:1,1998-06-04T17:00:00Z,27.8674,-96.5433,2.0,316.6210851,41.00031219,-99999.0,'11111222,11111222,99999999' 
TABS,ioos:station:TABS:H:1,1998-06-04T17:30:00Z,27.8674,-96.5433,2.0,292.2433298,39.75855254,-99999.0,'11111222,11111222,99999999' 
TABS,ioos:station:TABS:H:1,1998-06-04T18:00:00Z,27.8674,-96.5433,2.0,300.860538,42.69464252,-99999.0,'11111222,11111222,99999999' 